Terug naar catalogus

STARLINK-4648

ActiefCommunicatieVLEO
NORAD 53602·PAYLOAD·🇺🇸 United States

Gelanceerd Aug 28, 2022 vanaf Cape Canaveral Space Force Station

Loading…

Volgende Passages (komende 24 uur)

TLE

VersSource: CelesTrak SupGP

Epoch: Sep 15, 2026, 02:26 UTC

1 53602C 22104Q   26258.10187500  .00010588  00000+0  31281-3 0  2587
2 53602  53.1587  98.6354 0001310  77.1853  15.5831 15.34386165    14

Volg STARLINK-4648 in realtime met AllMySat

Download on the App Store